Weather in Il'panur

Russia / Mari El Republic     56°47′23″N   49°23′56″E
temp.,
°C
wind,
m/s
gust,
m/s
humid.,
%
clouds,
%
prec.,
mm/h
press.,
hPa
HPBL,
m
8 august, mon
mon800:00+19w116432 0.0 102011
03:00+18s006726 0.0 102011
06:00+20w016871 0.0 102142
09:00+25ne115534 0.0 1021341
12:00+29wnw013992 0.0 10202296
15:00+28s1247100 0.0 1020932
18:00+23ese236667 0.0 102062
21:00+22wsw116264 0.0 102011
9 august, tue
tue900:00+20e116990 0.0 102011
03:00+18ese117743 0.0 102011
06:00+20s007223 0.0 102049
09:00+25w0155100 0.0 1020512
12:00+28nnw1147100 0.0 10191385
15:00+28n214697 0.0 10181728
18:00+19ssw5893100 2.6 1018139
21:00+19e1180100 3.6 101811
10 august, wed
wed1000:00+17nw22915 0.0 101836
03:00+17s128887 0.0 101711
06:00+18wnw2586100 0.0 1018155
09:00+22nw22685 0.0 1018467
12:00+26wnw345355 0.0 10171308
15:00+24nw455897 0.0 1017746
18:00+18nw4786100 0.4 1018380
21:00+17nw0296100 0.9 1018158
11 august, thu
thu1100:00+14nnw4995100 0.6 1018330
03:00+11nw499374 0.6 1019274
06:00+12nw411903 0.0 1021421
09:00+16nw69645 0.0 1021889
12:00+20nw710516 0.0 10211719
15:00+19nnw6105263 0.0 10221663
18:00+18nw116499 0.0 102257
21:00+16sw226471 0.0 102232
12 august, fri
fri1200:00+13w2280100 0.0 102222
03:00+13wsw387774 0.0 1022135
06:00+14wsw497698 0.0 1022254
09:00+19w695774 0.0 1022722
12:00+22w694519 0.0 10211441
15:00+23wnw79440 0.0 10201652
18:00+21w510580 0.0 1020518
21:00+17w411710 0.0 1020214